User: anonymous   Login
Location: Unspecified
(0.0000°N, 0.0000°E)
Time: 18:54:54
(UTC+00:00)
Language:

Envisat - Orbit

View from above orbital plane
View from above orbital plane
View from above satellite
View from above satellite

Ground track
Ground track

The orbit data is extracted from the following two-line orbital elements,

1 27386U 02009A   18344.51442076 -.00000000  00000-0  13429-4 0  9990
2 27386  98.1669  10.0995 0001326  92.0261  69.7941 14.37936409878862
Epoch (UTC): 10 December 2018 12:20:45
Eccentricity: 0.0001326
inclination: 98.1669°
perigee height: 764 km
apogee height: 766 km
right ascension of ascending node: 10.0995°
argument of perigee: 92.0261°
revolutions per day: 14.37936409
mean anomaly at epoch: 69.7941°
orbit number at epoch: 87886

The dashed part of the orbit path shows where the satellite is in the earth's shadow,  

DLR